Previsão horária em Plodovoyagodnoe

Hoje, 25 Fevereiro, Quinta-feira

Tempo Temperatura Precipitação Vento Pressão Humidade
00:00 -9°C° 0.8 mm 3 m/s 698 mmHg 95%
01:00 -10°C° 0.8 mm 3 m/s 699 mmHg 94%
02:00 -12°C° 0.8 mm 3 m/s 699 mmHg 93%
03:00 -13°C° 0.4 mm 3 m/s 700 mmHg 94%
04:00 -12°C° 0.4 mm 2 m/s 701 mmHg 95%
05:00 -11°C° 0.4 mm 1 m/s 702 mmHg 96%
06:00 -11°C° 0.2 mm 1 m/s 702 mmHg 93%
07:00 -12°C° 0.2 mm 1 m/s 703 mmHg 91%
08:00 -12°C° 0.2 mm 1 m/s 704 mmHg 89%
09:00 -13°C° 0.1 mm 2 m/s 704 mmHg 87%
10:00 -12°C° 0.1 mm 2 m/s 705 mmHg 85%
11:00 -12°C° 0.1 mm 2 m/s 705 mmHg 84%
12:00 -10°C° 0 mm 2 m/s 705 mmHg 80%
13:00 -10°C° 0 mm 2 m/s 705 mmHg 75%
14:00 -8°C° 0 mm 1 m/s 706 mmHg 71%
15:00 -9°C° 0 mm 1 m/s 706 mmHg 74%
16:00 -9°C° 0 mm 1 m/s 707 mmHg 77%
17:00 -9°C° 0 mm 0 m/s 707 mmHg 79%
18:00 -10°C° 0 mm 1 m/s 707 mmHg 80%
19:00 -11°C° 0 mm 1 m/s 708 mmHg 81%
20:00 -12°C° 0 mm 1 m/s 708 mmHg 81%
21:00 -13°C° 0 mm 1 m/s 708 mmHg 79%
22:00 -15°C° 0 mm 2 m/s 709 mmHg 77%
23:00 -15°C° 0 mm 2 m/s 709 mmHg 75%

Amanhã, 26 Fevereiro, Sexta-feira

Tempo Temperatura Precipitação Vento Pressão Humidade
00:00 -16°C° 0 mm 2 m/s 709 mmHg 72%
01:00 -16°C° 0 mm 2 m/s 709 mmHg 70%
02:00 -16°C° 0 mm 2 m/s 709 mmHg 67%
03:00 -16°C° 0 mm 2 m/s 709 mmHg 66%
04:00 -17°C° 0 mm 2 m/s 709 mmHg 64%
05:00 -15°C° 0 mm 1 m/s 709 mmHg 63%
06:00 -14°C° 0 mm 1 m/s 709 mmHg 64%
07:00 -14°C° 0 mm 1 m/s 709 mmHg 65%
08:00 -13°C° 0 mm 1 m/s 709 mmHg 67%
09:00 -13°C° 0 mm 2 m/s 708 mmHg 69%
10:00 -12°C° 0 mm 2 m/s 708 mmHg 72%
11:00 -9°C° 0 mm 2 m/s 708 mmHg 74%
12:00 -9°C° 0 mm 2 m/s 707 mmHg 76%
13:00 -9°C° 0 mm 2 m/s 707 mmHg 77%
14:00 -8°C° 0 mm 2 m/s 706 mmHg 78%
15:00 -9°C° 0 mm 2 m/s 706 mmHg 81%
16:00 -10°C° 0 mm 2 m/s 706 mmHg 83%
17:00 -9°C° 0 mm 1 m/s 706 mmHg 86%
18:00 -10°C° 0 mm 1 m/s 706 mmHg 81%
19:00 -13°C° 0 mm 2 m/s 706 mmHg 76%
20:00 -13°C° 0 mm 2 m/s 706 mmHg 71%
21:00 -11°C° 0 mm 1 m/s 705 mmHg 70%
22:00 -10°C° 0 mm 1 m/s 705 mmHg 69%
23:00 -10°C° 0 mm 1 m/s 705 mmHg 69%

Depois de amanhã, 27 Fevereiro, Sábado

Tempo Temperatura Precipitação Vento Pressão Humidade
00:00 -10°C° 0 mm 1 m/s 704 mmHg 68%
01:00 -10°C° 0 mm 1 m/s 704 mmHg 67%
02:00 -10°C° 0 mm 1 m/s 704 mmHg 66%
03:00 -10°C° 0 mm 1 m/s 704 mmHg 65%
04:00 -10°C° 0 mm 1 m/s 704 mmHg 64%
05:00 -10°C° 0 mm 1 m/s 704 mmHg 63%
06:00 -9°C° 0 mm 1 m/s 704 mmHg 65%
07:00 -9°C° 0 mm 1 m/s 704 mmHg 68%
08:00 -8°C° 0 mm 1 m/s 704 mmHg 70%
09:00 -7°C° 0 mm 1 m/s 705 mmHg 68%
10:00 -6°C° 0 mm 1 m/s 705 mmHg 66%
11:00 -3°C° 0 mm 1 m/s 705 mmHg 65%
12:00 -3°C° 0 mm 1 m/s 705 mmHg 66%
13:00 -2°C° 0 mm 1 m/s 705 mmHg 67%
14:00 -2°C° 0 mm 1 m/s 705 mmHg 69%
15:00 -2°C° 0 mm 1 m/s 705 mmHg 72%
16:00 -3°C° 0 mm 1 m/s 705 mmHg 75%
17:00 -4°C° 0 mm 1 m/s 705 mmHg 79%
18:00 -4°C° 0 mm 1 m/s 706 mmHg 74%
19:00 -7°C° 0 mm 2 m/s 706 mmHg 69%
20:00 -8°C° 0 mm 2 m/s 707 mmHg 65%
21:00 -8°C° 0 mm 2 m/s 707 mmHg 63%
22:00 -9°C° 0 mm 3 m/s 707 mmHg 61%
23:00 -9°C° 0 mm 3 m/s 707 mmHg 59%

28 Fevereiro, Domingo

Tempo Temperatura Precipitação Vento Pressão Humidade
00:00 -9°C° 0 mm 3 m/s 707 mmHg 59%
01:00 -9°C° 0 mm 3 m/s 706 mmHg 58%
02:00 -9°C° 0 mm 3 m/s 706 mmHg 57%
03:00 -9°C° 0 mm 3 m/s 706 mmHg 56%
04:00 -9°C° 0 mm 3 m/s 706 mmHg 55%
05:00 -8°C° 0 mm 3 m/s 705 mmHg 53%
06:00 -8°C° 0 mm 3 m/s 705 mmHg 54%
07:00 -6°C° 0 mm 2 m/s 705 mmHg 56%
08:00 -5°C° 0 mm 2 m/s 705 mmHg 57%
09:00 -4°C° 0 mm 2 m/s 705 mmHg 61%
10:00 -2°C° 0 mm 2 m/s 704 mmHg 65%
11:00 +2°C° 0 mm 1 m/s 703 mmHg 69%
12:00 +2°C° 0 mm 1 m/s 703 mmHg 73%
13:00 +3°C° 0 mm 1 m/s 702 mmHg 77%
14:00 +3°C° 0 mm 1 m/s 702 mmHg 80%
15:00 +3°C° 0 mm 1 m/s 701 mmHg 79%
16:00 +2°C° 0 mm 1 m/s 701 mmHg 78%
17:00 +1°C° 0 mm 1 m/s 701 mmHg 77%
18:00 0°C° 0 mm 1 m/s 701 mmHg 69%
19:00 -2°C° 0 mm 2 m/s 701 mmHg 62%
20:00 -3°C° 0 mm 2 m/s 701 mmHg 55%
21:00 -3°C° 0 mm 2 m/s 701 mmHg 53%
22:00 -3°C° 0 mm 2 m/s 701 mmHg 51%
23:00 -2°C° 0 mm 3 m/s 701 mmHg 49%

1 Março, Segunda-feira

Tempo Temperatura Precipitação Vento Pressão Humidade
00:00 -2°C° 0 mm 3 m/s 701 mmHg 48%
01:00 -2°C° 0 mm 3 m/s 701 mmHg 47%
02:00 -2°C° 0 mm 3 m/s 701 mmHg 46%
03:00 -2°C° 0 mm 3 m/s 701 mmHg 46%
04:00 -2°C° 0 mm 3 m/s 700 mmHg 46%
05:00 -2°C° 0 mm 3 m/s 700 mmHg 46%
06:00 -1°C° 0 mm 2 m/s 700 mmHg 48%
07:00 +1°C° 0 mm 2 m/s 701 mmHg 49%
08:00 +2°C° 0 mm 2 m/s 701 mmHg 51%
09:00 +4°C° 0 mm 1 m/s 700 mmHg 65%
10:00 +5°C° 0 mm 1 m/s 700 mmHg 78%
11:00 +6°C° 0 mm 1 m/s 700 mmHg 92%
12:00 +5°C° 0 mm 0 m/s 700 mmHg 93%
13:00 +6°C° 0 mm 0 m/s 700 mmHg 95%
14:00 +6°C° 0 mm 0 m/s 699 mmHg 96%
15:00 +5°C° 0 mm 0 m/s 699 mmHg 83%
16:00 +6°C° 0 mm 1 m/s 700 mmHg 71%
17:00 +6°C° 0 mm 1 m/s 700 mmHg 58%
18:00 +5°C° 0 mm 1 m/s 700 mmHg 54%
19:00 +3°C° 0 mm 2 m/s 700 mmHg 50%
20:00 +2°C° 0 mm 3 m/s 701 mmHg 46%
21:00 +2°C° 0 mm 3 m/s 701 mmHg 45%
22:00 +2°C° 0 mm 3 m/s 701 mmHg 44%
23:00 +2°C° 0 mm 3 m/s 701 mmHg 43%

2 Março, Terça-feira

Tempo Temperatura Precipitação Vento Pressão Humidade
00:00 +2°C° 0 mm 3 m/s 701 mmHg 42%
01:00 +1°C° 0 mm 4 m/s 701 mmHg 42%
02:00 +1°C° 0 mm 4 m/s 701 mmHg 41%
03:00 +1°C° 0 mm 4 m/s 701 mmHg 42%
04:00 +1°C° 0 mm 4 m/s 701 mmHg 42%
05:00 +1°C° 0 mm 4 m/s 701 mmHg 43%
06:00 +3°C° 0 mm 4 m/s 701 mmHg 45%
07:00 +3°C° 0 mm 4 m/s 701 mmHg 47%
08:00 +3°C° 0 mm 3 m/s 702 mmHg 49%
09:00 +4°C° 0 mm 3 m/s 702 mmHg 63%
10:00 +6°C° 0 mm 2 m/s 701 mmHg 77%
11:00 +8°C° 0 mm 1 m/s 701 mmHg 91%
12:00 +8°C° 0 mm 1 m/s 701 mmHg 88%
13:00 +8°C° 0 mm 1 m/s 701 mmHg 86%
14:00 +8°C° 0 mm 1 m/s 701 mmHg 83%
15:00 +7°C° 0 mm 1 m/s 701 mmHg 77%
16:00 +7°C° 0 mm 1 m/s 701 mmHg 70%
17:00 +6°C° 0 mm 1 m/s 701 mmHg 63%
18:00 +5°C° 0 mm 2 m/s 701 mmHg 61%
19:00 +4°C° 0 mm 2 m/s 701 mmHg 58%
20:00 +2°C° 0 mm 3 m/s 702 mmHg 55%
21:00 +2°C° 0 mm 3 m/s 702 mmHg 55%
22:00 +2°C° 0 mm 3 m/s 702 mmHg 55%
23:00 +1°C° 0 mm 3 m/s 702 mmHg 55%
Mostrar mais

Necessitamos do seu Consentimento

A Meteoprog e os seus Fornecedores de Serviços podem armazenar e aceder a dados pessoais como cookies, identificadores do dispositivo ou outras tecnologias semelhantes existentes no seu dispositivo e processar estes dados para personalizar conteúdos e anúncios, assim como funcionalidades nas redes sociais e análise de tráfego.

  • Armazenar e/ou aceder a informações no seu dispositivo

    Os cookies, identificadores do dispositivo ou outras informações podem ser armazenados ou acedidos no seu dispositivo, para os fins acima indicados.

  • Anúncios e conteúdos personalizados, medição de anúncios e conteúdos, dados sobre o público-alvo e desenvolvimento de produtos

    Os anúncios e os conteúdos podem ser personalizados com base num perfil. Podem ser adicionados dados adicionais para uma maior personalização dos anúncios e dos conteúdos. A eficácia dos anúncios e dos conteúdos pode ser medida. Podem ser obtidas informações sobre o público que visualizou os anúncios e os conteúdos. Estes dados podem ser usados para desenvolver ou melhorar sistemas, softwares ou a experiência do utilizador.

Ao clicar em "Eu concordo”, permitirá o uso de cookies, identificadores do dispositivo e web beacons mencionados ou outras tecnologias semelhantes. As configurações do navegador do seu dispositivo podem ser alteradas.

Para certos fins, podem ser invocados interesses legítimos ao invés de consentimento. Pode ler mais informação sobre este assunto na nossa Política de Privacidade e Cookies.